User: anonymous   Login
Location: ?
(35.4554°N, 139.3092°E)
Time: 04:13:59
(UTC+00:00)
Language:

In-Cosmos 22 - Orbit

View from above orbital plane
View from above orbital plane
View from above satellite
View from above satellite

Ground track
Ground track

The orbit data is extracted from the following two-line orbital elements,

1 12645U 81075A   21174.57249043  .00000062  00000-0  23126-4 0  9994
2 12645  81.2170 209.0789 0064193  29.2361 331.2381 14.18396656 62053
Epoch (UTC): 23 June 2021 13:44:23
Eccentricity: 0.0064193
inclination: 81.2170°
perigee height: 784 km
apogee height: 877 km
right ascension of ascending node: 209.0789°
argument of perigee: 29.2361°
revolutions per day: 14.18396656
mean anomaly at epoch: 331.2381°
orbit number at epoch: 6205

The dashed part of the orbit path shows where the satellite is in the earth's shadow,  

DLR